N1ULC Weather Reports


Display with metric or nautical units.
time (UTC)temp
F
wind
direction
speed
MPH
gust
MPH
rain 1hr
in
rain 24hr
in
rain mn
in
humidity
%
barometer
mb
20260906205826 88 88 0.0 0.0 0.00 0.01 0.01 51 1010.4
20260906205343 89 61 0.0 0.0 0.00 0.01 0.01 48 1010.4
20260906204822 89 53 0.0 0.0 0.00 0.01 0.01 49 1010.4
20260906204344 89 57 0.0 0.0 0.00 0.01 0.01 43 1010.4
20260906203833 88 106 0.0 0.0 0.00 0.01 0.01 44 1010.6
20260906203329 87 102 0.0 0.0 0.00 0.01 0.01 49 1011.5
20260906202827 86 58 0.0 0.0 0.00 0.01 0.01 57 1011.5
20260906202325 85 76 0.0 0.0 0.00 0.01 0.01 57 1012.1
20260906201843 85 52 0.0 0.0 0.00 0.01 0.01 59 1012.1
20260906201319 84 71 0.0 0.0 0.00 0.01 0.01 59 1012.1
20260906200835 84 61 0.0 0.0 0.00 0.01 0.01 58 1012.5
20260906200353 84 65 0.0 0.0 0.00 0.01 0.01 59 1012.5
20260906195830 85 59 0.0 0.0 0.00 0.01 0.01 59 1012.5
20260906195324 84 106 0.0 0.0 0.00 0.01 0.01 60 1012.9
20260906194824 84 73 0.0 0.0 0.00 0.01 0.01 60 1012.9
20260906194322 84 71 0.0 0.0 0.00 0.01 0.01 61 1012.9
20260906193840 83 113 0.0 0.0 0.00 0.01 0.01 65 1012.9
20260906193334 82 70 0.0 0.0 0.00 0.01 0.01 68 1013.4
20260906192833 81 65 0.0 0.0 0.00 0.01 0.01 71 1013.4
20260906192329 80 66 0.0 0.0 0.00 0.01 0.01 71 1013.5
20260906191846 81 53 0.0 0.0 0.00 0.01 0.01 67 1013.5
20260906191343 82 73 0.0 0.0 0.00 0.01 0.01 65 1013.5
20260906190835 83 55 0.0 15.0 0.00 0.01 0.01 62 1012.8
20260906190353 83 40 0.0 21.0 0.00 0.01 0.01 66 1012.8
20260906185829 83 38 15.0 21.0 0.00 0.01 0.01 67 1012.8
20260906185327 82 31 14.0 20.0 0.00 0.01 0.01 68 1011.8
20260906184823 82 57 13.0 22.0 0.00 0.01 0.01 69 1011.8
20260906184322 82 27 15.0 22.0 0.00 0.01 0.01 68 1011.8
20260906183844 81 28 0.0 22.0 0.00 0.01 0.01 70 1012.6
20260906183322 80 15 0.0 22.0 0.00 0.01 0.01 70 1012.6
20260906182839 80 34 16.0 23.0 0.00 0.01 0.01 72 1012.6
20260906182336 79 26 14.0 23.0 0.00 0.01 0.01 72 1013.0
20260906181833 78 24 16.0 20.0 0.00 0.01 0.01 72 1013.0
20260906181331 78 22 0.0 0.0 0.00 0.01 0.01 72 1013.0
20260906180830 79 14 0.0 0.0 0.00 0.01 0.01 71 1013.4
20260906180347 79 5 0.0 0.0 0.00 0.01 0.01 71 1013.4
20260906175824 79 32 0.0 0.0 0.00 0.01 0.01 73 1013.4
20260906175320 80 34 0.0 0.0 0.00 0.01 0.01 72 1013.8
20260906174820 79 21 0.0 0.0 0.00 0.01 0.01 72 1013.8
20260906174357 79 43 0.0 0.0 0.00 0.01 0.01 74 1013.8
20260906173832 78 38 0.0 0.0 0.00 0.01 0.01 77 1013.4
20260906173332 77 5 0.0 0.0 0.00 0.01 0.01 76 1013.4
20260906172830 76 360 0.0 12.0 0.00 0.01 0.01 78 1013.4
20260906172326 75 341 0.0 14.0 0.01 0.01 0.01 80 1013.7
20260906171825 74 10 7.0 15.0 0.01 0.01 0.01 81 1013.7
20260906171323 74 5 13.0 16.0 0.01 0.01 0.01 81 1013.7
20260906170823 74 346 11.0 16.0 0.01 0.01 0.01 83 1013.9
20260906170356 74 360 11.0 14.0 0.01 0.01 0.01 85 1013.9
20260906165852 73 12 9.0 12.0 0.01 0.01 0.01 86 1013.9
20260906165327 72 11 6.0 15.0 0.01 0.01 0.01 87 1014.4
20260906164826 72 5 11.0 15.0 0.01 0.01 0.01 87 1014.4
20260906164323 72 9 10.0 12.0 0.01 0.01 0.01 87 1014.4
20260906163821 71 259 5.0 10.0 0.01 0.01 0.01 87 1014.0
20260906163358 71 339 8.0 11.0 0.01 0.01 0.01 87 1014.0
20260906162834 71 272 5.0 13.0 0.01 0.01 0.01 86 1014.0
20260906162330 71 246 10.0 13.0 0.00 0.00 0.00 85 1014.3
20260906161829 71 315 6.0 11.0 0.00 0.00 0.00 84 1014.3
20260906161325 71 290 8.0 11.0 0.00 0.00 0.00 84 1014.3
20260906160825 71 263 5.0 14.0 0.00 0.00 0.00 84 1014.4
20260906160322 71 294 8.0 17.0 0.00 0.00 0.00 85 1014.4
20260906155904 71 277 12.0 22.0 0.00 0.00 0.00 84 1014.4
20260906155333 71 262 12.0 24.0 0.00 0.00 0.00 84 1013.7
20260906154830 73 259 18.0 24.0 0.00 0.00 0.00 81 1013.7
20260906154328 75 272 0.0 0.0 0.00 0.00 0.00 78 1013.7
20260906153824 80 259 0.0 0.0 0.00 0.00 0.00 74 1012.7
20260906153324 80 219 0.0 0.0 0.00 0.00 0.00 73 1012.7
20260906152822 80 196 0.0 0.0 0.00 0.00 0.00 73 1012.7
20260906152321 80 205 0.0 0.0 0.00 0.00 0.00 74 1012.8
20260906151818 79 198 0.0 0.0 0.00 0.00 0.00 75 1012.8
20260906151335 79 180 0.0 0.0 0.00 0.00 0.00 76 1012.8
20260906150832 78 169 0.0 0.0 0.00 0.00 0.00 76 1012.7
20260906150349 78 170 0.0 0.0 0.00 0.00 0.00 77 1012.7
20260906145827 77 173 0.0 0.0 0.00 0.00 0.00 79 1012.7
20260906145323 76 148 0.0 0.0 0.00 0.00 0.00 82 1013.1
20260906144820 75 126 0.0 0.0 0.00 0.00 0.00 87 1013.1
20260906144337 73 123 0.0 0.0 0.00 0.00 0.00 89 1013.1
20260906143833 73 123 0.0 0.0 0.00 0.00 0.00 90 1013.3
20260906143330 72 105 0.0 0.0 0.00 0.00 0.00 91 1013.3
20260906142828 72 69 0.0 0.0 0.00 0.00 0.00 92 1013.3
20260906142324 71 69 0.0 0.0 0.00 0.00 0.00 93 1013.4
20260906141821 70 53 0.0 0.0 0.00 0.00 0.00 94 1013.4
20260906141318 70 55 0.0 0.0 0.00 0.00 0.00 95 1013.4
20260906140815 69 55 0.0 0.0 0.00 0.00 0.00 95 1013.5
20260906140314 69 162 0.0 0.0 0.00 0.00 0.00 95 1013.5
20260906135836 68 162 0.0 3.0 0.00 0.00 0.00 95 1013.5
20260906135352 68 286 1.0 5.0 0.00 0.00 0.00 95 1013.6
20260906134827 67 286 1.0 7.0 0.00 0.00 0.00 95 1013.6
20260906134343 66 269 5.0 7.0 0.00 0.00 0.00 94 1013.6
20260906133833 66 209 3.0 5.0 0.00 0.00 0.00 94 1013.8
20260906133350 66 209 2.0 5.0 0.00 0.00 0.00 95 1013.8
20260906132826 66 209 4.0 5.0 0.00 0.00 0.00 94 1013.8
20260906132321 66 209 4.0 6.0 0.00 0.00 0.00 94 1013.6
20260906131901 66 201 4.0 6.0 0.00 0.00 0.00 94 1013.6
20260906131333 66 160 3.0 4.0 0.00 0.00 0.00 95 1013.6
20260906130851 66 161 2.0 4.0 0.00 0.00 0.00 95 1013.4
20260906130327 66 126 3.0 4.0 0.00 0.00 0.00 95 1013.4
20260906125823 65 355 0.0 2.0 0.00 0.00 0.00 94 1013.4
20260906125322 65 355 0.0 2.0 0.00 0.00 0.00 95 1013.0
20260906124819 65 355 0.0 2.0 0.00 0.00 0.00 95 1013.0
20260906124336 65 355 0.0 1.0 0.00 0.00 0.00 94 1013.0
20260906123832 64 355 0.0 1.0 0.00 0.00 0.00 94 1012.9
20260906123329 64 355 0.0 1.0 0.00 0.00 0.00 94 1012.9
20260906122845 65 355 0.0 2.0 0.00 0.00 0.00 94 1012.9
20260906122320 64 355 1.0 4.0 0.00 0.00 0.00 94 1013.0
20260906121835 64 355 2.0 4.0 0.00 0.00 0.00 94 1013.0
20260906121332 64 355 1.0 4.0 0.00 0.00 0.00 94 1013.0
20260906120829 64 355 2.0 4.0 0.00 0.00 0.00 94 1013.3
20260906120329 64 355 1.0 4.0 0.00 0.00 0.00 94 1013.3
20260906115825 64 355 3.0 4.0 0.00 0.00 0.00 94 1013.3
20260906115321 64 136 0.0 4.0 0.00 0.00 0.00 94 1013.4
20260906114818 64 136 0.0 5.0 0.00 0.00 0.00 94 1013.4
20260906114336 64 136 3.0 5.0 0.00 0.00 0.00 93 1013.4
20260906113834 65 138 3.0 4.0 0.00 0.00 0.00 94 1012.9
20260906113332 65 360 1.0 3.0 0.00 0.00 0.00 94 1012.9
20260906112832 65 360 1.0 3.0 0.00 0.00 0.00 94 1012.9
20260906112329 65 360 1.0 5.0 0.00 0.00 0.00 93 1012.9
20260906111828 65 360 2.0 6.0 0.00 0.00 0.00 94 1012.9
20260906111326 65 360 5.0 6.0 0.00 0.00 0.00 94 1012.9
20260906110828 65 5 3.0 5.0 0.00 0.00 0.00 93 1013.0
20260906110325 65 63 2.0 5.0 0.00 0.00 0.00 94 1013.0
20260906105824 65 37 2.0 6.0 0.00 0.00 0.00 93 1013.0
20260906105326 64 5 3.0 10.0 0.00 0.00 0.00 93 1012.9
20260906104824 65 348 7.0 10.0 0.00 0.00 0.00 94 1012.9
20260906104322 64 355 6.0 7.0 0.00 0.00 0.00 93 1012.9
20260906103840 64 15 6.0 6.0 0.00 0.00 0.00 93 1013.0
20260906103317 64 15 5.0 6.0 0.00 0.00 0.00 93 1013.0
20260906102832 64 15 3.0 6.0 0.00 0.00 0.00 93 1013.0
20260906102328 64 15 3.0 6.0 0.00 0.00 0.00 93 1012.9
20260906101828 65 15 4.0 5.0 0.00 0.00 0.00 92 1012.9
20260906101328 65 355 4.0 5.0 0.00 0.00 0.00 93 1012.9
20260906100826 65 22 2.0 3.0 0.00 0.00 0.00 92 1012.8
20260906100322 65 22 1.0 4.0 0.00 0.00 0.00 92 1012.8
20260906095818 65 22 1.0 5.0 0.00 0.00 0.00 92 1012.8
20260906095314 65 22 3.0 4.0 0.00 0.00 0.00 93 1012.8
20260906094834 65 22 2.0 3.0 0.00 0.00 0.00 92 1012.8
20260906094331 65 22 1.0 5.0 0.00 0.00 0.00 92 1012.8
20260906093848 65 22 3.0 5.0 0.00 0.00 0.00 92 1012.8
20260906093347 65 22 3.0 6.0 0.00 0.00 0.00 92 1012.8
20260906092825 66 22 3.0 6.0 0.00 0.00 0.00 92 1012.8
20260906092321 66 22 3.0 7.0 0.00 0.00 0.00 92 1012.8
20260906091838 66 22 5.0 6.0 0.00 0.00 0.00 92 1012.8
20260906091332 66 30 3.0 6.0 0.00 0.00 0.00 92 1012.8
20260906090829 65 34 3.0 5.0 0.00 0.00 0.00 91 1013.1
20260906090326 65 34 4.0 5.0 0.00 0.00 0.00 91 1013.1
20260906085826 66 10 2.0 5.0 0.00 0.00 0.00 91 1013.1
20260906085327 66 46 3.0 5.0 0.00 0.00 0.00 91 1012.9
20260906084824 66 65 2.0 6.0 0.00 0.00 0.00 91 1012.9
20260906084344 66 40 3.0 6.0 0.00 0.00 0.00 91 1012.9
20260906083842 66 55 3.0 4.0 0.00 0.00 0.00 91 1012.9
20260906083332 66 55 2.0 5.0 0.00 0.00 0.00 91 1012.7
20260906082832 66 55 1.0 5.0 0.00 0.00 0.00 91 1012.7
20260906082348 66 50 3.0 5.0 0.00 0.00 0.00 91 1012.5
20260906081825 66 38 1.0 6.0 0.00 0.00 0.00 91 1012.5
20260906081323 66 38 3.0 6.0 0.00 0.00 0.00 91 1012.5
20260906080823 66 19 5.0 6.0 0.00 0.00 0.00 90 1012.4
20260906080343 67 5 5.0 6.0 0.00 0.00 0.00 90 1012.4
20260906075821 67 17 2.0 9.0 0.00 0.00 0.00 90 1012.4
20260906075342 67 28 4.0 10.0 0.00 0.00 0.00 91 1012.7
20260906074818 67 35 6.0 10.0 0.00 0.00 0.00 91 1012.7
20260906074355 66 33 4.0 5.0 0.00 0.00 0.00 90 1012.7
20260906073831 66 20 2.0 5.0 0.00 0.00 0.00 90 1012.7
20260906073328 66 20 3.0 5.0 0.00 0.00 0.00 90 1012.7
20260906072825 66 5 2.0 7.0 0.00 0.00 0.00 89 1012.7
20260906072321 67 5 4.0 7.0 0.00 0.00 0.00 89 1012.8
20260906071837 67 17 4.0 5.0 0.00 0.00 0.00 89 1012.8
20260906071354 67 28 5.0 5.0 0.00 0.00 0.00 88 1012.8
20260906070829 67 40 2.0 4.0 0.00 0.00 0.00 88 1012.7
20260906070325 67 36 3.0 5.0 0.00 0.00 0.00 88 1012.7
20260906065822 67 26 3.0 5.0 0.00 0.00 0.00 88 1012.7
20260906065319 68 37 2.0 4.0 0.00 0.00 0.00 88 1012.7
20260906064903 68 58 2.0 4.0 0.00 0.00 0.00 87 1012.7
20260906064333 68 58 2.0 4.0 0.00 0.00 0.00 87 1012.7
20260906063849 68 58 3.0 6.0 0.00 0.00 0.00 87 1012.9
20260906063330 68 50 4.0 6.0 0.00 0.00 0.00 87 1012.9
20260906062827 68 51 3.0 4.0 0.00 0.00 0.00 86 1012.9
20260906062322 68 51 3.0 4.0 0.00 0.00 0.00 86 1013.1
20260906061819 69 29 2.0 6.0 0.00 0.00 0.00 86 1013.1
20260906061356 69 28 3.0 6.0 0.00 0.00 0.00 86 1013.1
20260906060852 69 38 5.0 12.0 0.00 0.00 0.00 86 1012.7
20260906060328 69 42 7.0 12.0 0.00 0.00 0.00 86 1012.7
20260906055827 68 5 7.0 10.0 0.00 0.00 0.00 85 1012.7
20260906055324 68 5 7.0 9.0 0.00 0.00 0.00 85 1012.7
20260906054841 68 355 6.0 9.0 0.00 0.00 0.00 85 1012.7
20260906054320 68 355 5.0 7.0 0.00 0.00 0.00 84 1012.7
20260906053819 68 9 5.0 6.0 0.00 0.00 0.00 83 1012.8
20260906053316 68 9 2.0 5.0 0.00 0.00 0.00 81 1012.8
20260906052833 69 9 1.0 5.0 0.00 0.00 0.00 81 1012.8
20260906052329 69 9 2.0 5.0 0.00 0.00 0.00 80 1012.8
20260906051825 69 355 3.0 5.0 0.00 0.00 0.00 79 1012.8
20260906051322 69 12 3.0 5.0 0.00 0.00 0.00 79 1012.8
20260906050819 70 32 3.0 4.0 0.00 0.00 0.00 79 1012.7
20260906050356 70 32 2.0 3.0 0.00 0.00 0.00 78 1012.7
20260906045825 70 32 2.0 3.0 0.00 0.00 0.00 77 1012.7
20260906045322 70 32 2.0 3.0 0.00 0.00 0.00 77 1012.7
20260906044818 70 32 2.0 4.0 0.00 0.00 0.00 77 1012.7
20260906044356 70 32 2.0 4.0 0.00 0.00 0.00 77 1012.7
20260906043853 70 32 2.0 3.0 0.00 0.00 0.00 76 1012.8
20260906043329 70 32 1.0 3.0 0.00 0.00 0.00 76 1012.8
20260906042828 70 32 1.0 3.0 0.00 0.00 0.00 76 1012.8
20260906042324 70 32 2.0 3.0 0.00 0.00 0.00 76 1012.7
20260906041820 70 32 1.0 4.0 0.00 0.00 0.00 76 1012.7
20260906041337 70 32 1.0 6.0 0.00 0.00 0.00 76 1012.7
20260906040833 70 9 4.0 7.0 0.00 0.00 0.00 76 1012.7
20260906040330 70 11 5.0 7.0 0.00 0.00 0.00 75 1012.7
20260906035827 71 360 6.0 8.0 0.00 0.00 0.00 74 1012.7
20260906035324 71 360 5.0 8.0 0.00 0.00 0.00 73 1012.5
20260906034840 71 355 5.0 6.0 0.00 0.00 0.00 73 1012.5
20260906034357 72 34 3.0 5.0 0.00 0.00 0.00 72 1012.5
20260906033852 72 34 3.0 4.0 0.00 0.00 0.00 72 1012.1
20260906033328 72 34 1.0 2.0 0.00 0.00 0.00 72 1012.1
20260906032826 73 34 1.0 3.0 0.00 0.00 0.00 71 1012.1
20260906032322 73 34 0.0 4.0 0.00 0.00 0.00 71 1011.9
20260906031840 73 34 1.0 4.0 0.00 0.00 0.00 70 1011.9
20260906031336 73 34 1.0 3.0 0.00 0.00 0.00 71 1011.9
20260906030832 74 34 1.0 3.0 0.00 0.00 0.00 71 1011.8
20260906030329 74 34 1.0 3.0 0.00 0.00 0.00 71 1011.8
20260906025829 74 79 2.0 4.0 0.00 0.00 0.00 71 1011.8
20260906025329 74 79 2.0 4.0 0.00 0.00 0.00 71 1011.7
20260906024826 75 79 2.0 5.0 0.00 0.00 0.00 71 1011.7
20260906024327 75 79 2.0 5.0 0.00 0.00 0.00 71 1011.7
20260906023822 75 48 2.0 5.0 0.00 0.00 0.00 70 1011.3
20260906023319 75 54 3.0 5.0 0.00 0.00 0.00 70 1011.3
20260906022833 76 55 3.0 6.0 0.00 0.00 0.00 71 1011.3
20260906022349 76 78 4.0 6.0 0.00 0.00 0.00 71 1011.1
20260906021828 76 104 2.0 5.0 0.00 0.00 0.00 71 1011.1
20260906021325 77 76 3.0 5.0 0.00 0.00 0.00 70 1011.1
20260906020842 78 76 2.0 4.0 0.00 0.00 0.00 69 1011.1
20260906020335 78 76 2.0 7.0 0.00 0.00 0.00 67 1010.8
20260906015833 79 73 4.0 5.0 0.00 0.00 0.00 66 1010.8
20260906015350 80 79 3.0 4.0 0.00 0.00 0.00 65 1010.6
20260906014829 80 79 1.0 2.0 0.00 0.00 0.00 64 1010.6
20260906014327 81 79 0.0 0.0 0.00 0.00 0.00 63 1010.6
20260906013824 81 79 0.0 1.0 0.00 0.00 0.00 61 1010.4
20260906013322 82 79 0.0 1.0 0.00 0.00 0.00 61 1010.4
20260906012843 82 79 0.0 0.0 0.00 0.00 0.00 61 1010.4
20260906012335 82 79 0.0 0.0 0.00 0.00 0.00 60 1010.5
20260906011830 83 79 0.0 0.0 0.00 0.00 0.00 59 1010.5
20260906011328 83 79 0.0 0.0 0.00 0.00 0.00 58 1010.5
20260906010828 84 79 0.0 0.0 0.00 0.00 0.00 57 1010.3
20260906010324 85 79 0.0 0.0 0.00 0.00 0.00 56 1010.3
20260906005821 85 94 0.0 0.0 0.00 0.00 0.00 55 1010.3
20260906005336 86 102 0.0 0.0 0.00 0.00 0.00 55 1010.3
20260906004833 86 72 0.0 0.0 0.00 0.00 0.00 54 1010.3
20260906004330 86 94 0.0 0.0 0.00 0.00 0.00 54 1010.3
20260906003827 87 67 0.0 0.0 0.00 0.00 0.00 54 1010.3
20260906003345 87 75 0.0 0.0 0.00 0.00 0.00 54 1010.3
20260906002822 88 75 0.0 0.0 0.00 0.00 0.00 52 1010.3
20260906002401 89 104 0.0 0.0 0.00 0.00 0.00 51 1010.3
20260906001833 89 78 0.0 0.0 0.00 0.00 0.00 50 1010.3
20260906001333 90 75 0.0 0.0 0.00 0.00 0.00 49 1010.3
20260906000830 90 66 0.0 0.0 0.00 0.00 0.00 48 1010.0
20260906000344 91 104 0.0 0.0 0.00 0.00 0.00 46 1010.0
20260905235820 92 94 0.0 0.0 0.00 0.00 0.00 43 1010.0
20260905235317 92 93 0.0 0.0 0.00 0.00 0.00 42 1009.8
20260905234856 93 99 0.0 0.0 0.00 0.00 0.00 42 1009.8
20260905234334 93 62 0.0 0.0 0.00 0.00 0.00 41 1009.8
20260905233831 93 63 0.0 0.0 0.00 0.00 0.00 41 1009.7
20260905233329 93 64 0.0 0.0 0.00 0.00 0.00 41 1009.7
20260905232848 93 77 0.0 0.0 0.00 0.00 0.00 40 1009.7
20260905232328 93 65 0.0 0.0 0.00 0.00 0.00 40 1009.4
20260905231825 94 92 0.0 0.0 0.00 0.00 0.00 40 1009.4
20260905231325 95 96 0.0 0.0 0.00 0.00 0.00 39 1009.4
20260905230843 95 60 0.0 0.0 0.00 0.00 0.00 39 1009.4
20260905230335 95 96 0.0 0.0 0.00 0.00 0.00 39 1009.2
20260905225834 95 97 0.0 0.0 0.00 0.00 0.00 39 1009.2
20260905225330 95 70 0.0 0.0 0.00 0.00 0.00 39 1009.0
20260905224828 96 72 0.0 0.0 0.00 0.00 0.00 38 1009.0
20260905224326 96 88 0.0 0.0 0.00 0.00 0.00 38 1009.0
20260905223824 96 98 0.0 0.0 0.00 0.00 0.00 38 1008.7
20260905223344 97 73 0.0 0.0 0.00 0.00 0.00 37 1008.7
20260905222821 97 139 0.0 0.0 0.00 0.00 0.00 37 1008.7
20260905222321 97 151 0.0 0.0 0.00 0.00 0.00 37 1008.7
20260905221854 96 96 0.0 0.0 0.00 0.00 0.00 37 1008.7
20260905221331 96 130 0.0 0.0 0.00 0.00 0.00 38 1008.7
20260905220845 96 119 0.0 0.0 0.00 0.00 0.00 38 1009.2
20260905220337 96 126 0.0 0.0 0.00 0.00 0.00 38 1009.2
20260905215830 95 107 0.0 0.0 0.00 0.00 0.00 38 1009.2
20260905215328 95 69 0.0 0.0 0.00 0.00 0.00 38 1009.3
20260905214823 95 122 0.0 0.0 0.00 0.00 0.00 37 1009.3
20260905214320 96 82 0.0 0.0 0.00 0.00 0.00 38 1009.3
20260905213855 95 94 0.0 0.0 0.00 0.00 0.00 38 1009.5
20260905213330 96 75 0.0 0.0 0.00 0.00 0.00 38 1009.5
20260905212846 96 60 0.0 0.0 0.00 0.00 0.00 38 1009.5
20260905212353 95 120 0.0 0.0 0.00 0.00 0.00 38 1009.7
20260905211826 95 62 0.0 0.0 0.00 0.00 0.00 38 1009.7
20260905211323 95 101 0.0 0.0 0.00 0.00 0.00 39 1009.7
20260905210839 95 68 0.0 0.0 0.00 0.00 0.00 38 1009.7
20260905210332 95 67 0.0 0.0 0.00 0.00 0.00 38 1009.8